Location: Koslow
(50.3020°N, 18.5663°E)
Time: 21:08:54
(UTC+00:00)

CZ-4C R/B - Pass Details

Date: 07 June 2020
Orbit: 463 x 637 km, 98.0° (Epoch: 13 July)

Event Time Altitude Azimuth Distance (km) Brightness Sun altitude
Exits shadow 00:37:58 18° 187° (S) 1,566 5.0 -12.7°
Maximum altitude 00:41:07 53° 260° (W) 788 3.9 -12.5°
Drops below altitude 10° 00:45:29 10° 337° (NNW) 2,037 6.8 -12.2°
Sets 00:47:45 0° 343° (NNW) 2,945 7.7 -12.0°
